0 HST 1 20580U 90037B 26071.22647860 .00008646 00000-0 28559-3 0 9991 2 20580 28.4723 22.6938 0001818 150.2149 209.8550 15.29528665773705 0 ISS (ZARYA) 1 25544U 98067A 26071.15917150 .00009166 00000-0 17667-3 0 9997 2 25544 51.6325 60.1463 0007984 183.4136 176.6799 15.48595269556711 0 CXO 1 25867U 99040B 26071.53156319 .00001015 00000-0 00000-0 0 9996 2 25867 54.5614 119.5985 7991212 310.6812 0.3445 0.37798688 16958